Weather History for Tampa, FL

Change the Weather History Date:

Thursday, October 25, 2012

  Actual Average Record
Temperature  
Mean Temperature 79 °F 74 °F  
Max Temperature 86 °F 82 °F 89 °F (1919)
Min Temperature 72 °F 66 °F 46 °F (1909)
Degree Days  
Heating Degree Days 0 0  
Month to date heating degree days 0 0  
Since 1 July heating degree days 0 0  
Cooling Degree Days 14 9  
Month to date cooling degree days 338 299  
Year to date cooling degree days 3767 3315  
Growing Degree Days 29 (Base 50)    
Moisture  
Dew Point 67 °F    
Average Humidity 69    
Maximum Humidity 87    
Minimum Humidity 51    
Precipitation  
Precipitation T in 0.05 in 5.02 in (1921)
Month to date precipitation 3.10 1.95  
Year to date precipitation 53.63 41.97  
Sea Level Pressure  
Sea Level Pressure 29.88 in    
Wind  
Wind Speed 9 mph (NNE)    
Max Wind Speed 25 mph    
Max Gust Speed 26 mph    
Visibility 10 miles    
Events      
T = Trace of Precipitation, MM = Missing Value Source: NWS Daily Summary

Daily Weather History Graph

Daily Weather History Graph

Search for Another Location

Airport:

Trip Planner

Search our weather history database for the weather conditions in past years. The results will help you decide how hot, cold, wet, or windy it might be!

Date:

Astronomy

Oct. 25, 2012 Rise Set
Actual Time 7:36 AM EDT 6:50 PM EDT
Civil Twilight 7:12 AM EDT 7:14 PM EDT
Nautical Twilight 6:45 AM EDT 7:42 PM EDT
Astronomical Twilight 6:18 AM EDT 8:09 PM EDT
Moon 4:20 PM EDT (10/25) 3:50 AM EDT (10/25)
Length of Visible Light 12h 01m
Length of Day
11h 14m
Waxing Gibbous, 84% of the Moon is Illuminated
Oct 25
Waxing Gibbous
Oct 29
Full
Nov 6
Last Quarter
Nov 13
New
Nov 20
First Quarter

Hourly Weather History & Observations

Time (EDT) Temp. Heat Index Dew Point Humidity Pressure Visibility Wind Dir Wind Speed Gust Speed Precip Events Conditions
12:53 AM 73.0 °F - 66.0 °F 79% 29.94 in 10.0 mi NNE 9.2 mph - N/A   Clear
1:53 AM 73.0 °F - 66.0 °F 79% 29.93 in 10.0 mi NE 6.9 mph - N/A   Partly Cloudy
2:53 AM 72.0 °F - 66.0 °F 81% 29.90 in 10.0 mi NNE 9.2 mph - N/A   Partly Cloudy
3:53 AM 72.0 °F - 66.0 °F 81% 29.88 in 10.0 mi NE 8.1 mph - N/A   Mostly Cloudy
4:53 AM 72.0 °F - 66.0 °F 81% 29.88 in 10.0 mi NNE 8.1 mph - N/A   Mostly Cloudy
5:53 AM 73.0 °F - 66.9 °F 81% 29.88 in 10.0 mi NNE 6.9 mph - N/A   Mostly Cloudy
6:53 AM 73.0 °F - 66.9 °F 81% 29.89 in 10.0 mi NNE 9.2 mph - N/A   Mostly Cloudy
7:53 AM 73.0 °F - 68.0 °F 84% 29.91 in 10.0 mi NE 6.9 mph - N/A   Mostly Cloudy
8:53 AM 73.9 °F - 68.0 °F 82% 29.91 in 10.0 mi NE 8.1 mph - N/A   Mostly Cloudy
9:53 AM 78.1 °F - 69.1 °F 74% 29.92 in 10.0 mi NE 9.2 mph 16.1 mph N/A   Mostly Cloudy
10:53 AM 79.0 °F - 69.1 °F 72% 29.92 in 10.0 mi NE 6.9 mph - N/A   Overcast
11:53 AM 81.0 °F 84.1 °F 69.1 °F 67% 29.90 in 10.0 mi NE 11.5 mph - N/A   Mostly Cloudy
1:53 PM 84.0 °F 87.0 °F 68.0 °F 58% 29.84 in 10.0 mi NE 8.1 mph - N/A   Overcast
2:53 PM 84.0 °F 85.8 °F 64.9 °F 53% 29.82 in 10.0 mi NE 10.4 mph 17.3 mph N/A   Overcast
3:53 PM 84.0 °F 86.3 °F 66.0 °F 55% 29.81 in 10.0 mi NNE 8.1 mph - N/A   Overcast
4:53 PM 82.9 °F 85.0 °F 66.0 °F 56% 29.82 in 10.0 mi NE 13.8 mph 20.7 mph N/A   Mostly Cloudy
5:53 PM 80.1 °F 82.3 °F 66.9 °F 64% 29.84 in 10.0 mi NNE 17.3 mph 23.0 mph N/A   Mostly Cloudy
6:53 PM 78.1 °F - 66.9 °F 68% 29.86 in 10.0 mi NE 10.4 mph 20.7 mph N/A   Mostly Cloudy
7:53 PM 75.0 °F - 68.0 °F 79% 29.86 in 10.0 mi NNE 6.9 mph - 0.00 in   Mostly Cloudy
8:53 PM 75.0 °F - 68.0 °F 79% 29.86 in 10.0 mi North 6.9 mph - N/A   Mostly Cloudy
9:53 PM 73.9 °F - 68.0 °F 82% 29.86 in 10.0 mi North 6.9 mph - N/A   Mostly Cloudy
10:53 PM 75.0 °F - 68.0 °F 79% 29.86 in 10.0 mi North 8.1 mph - N/A   Mostly Cloudy
11:53 PM 73.9 °F - 69.1 °F 85% 29.84 in 10.0 mi North 6.9 mph - N/A   Overcast